WESTMAR Weather Reports


time (UTC)temp
F
wind
direction
speed
knots
gust
knots
rain 1hr
in
rain 24hr
in
rain mn
in
humidity
%
barometer
mb
20260503213044 83 148 0.0 3.5 0.00 0.00 0.00 40 1010.1
20260503211548 83 0 0.0 4.3 0.00 0.00 0.00 40 1010.1
20260503210047 84 234 0.0 3.5 0.00 0.00 0.00 41 1010.3
20260503204546 82 154 0.0 4.3 0.00 0.00 0.00 42 1010.6
20260503203056 82 0 0.0 3.5 0.00 0.00 0.00 42 1010.8
20260503201551 81 208 0.0 2.6 0.00 0.00 0.00 43 1010.9
20260503200054 79 0 0.0 3.5 0.00 0.00 0.00 45 1011.1
20260503194558 80 0 0.0 2.6 0.00 0.00 0.00 44 1011.4
20260503193056 81 170 0.0 3.5 0.00 0.00 0.00 44 1011.5
20260503191554 78 0 0.0 2.6 0.00 0.00 0.00 46 1011.6
20260503190050 77 0 0.0 1.7 0.00 0.00 0.00 49 1011.6
20260503184550 76 0 0.0 2.6 0.00 0.00 0.00 50 1011.8
20260503183051 75 0 0.0 2.6 0.00 0.00 0.00 51 1011.9
20260503181552 75 0 0.0 3.5 0.00 0.00 0.00 49 1011.9
20260503180100 74 178 0.0 1.7 0.00 0.00 0.00 51 1011.9
20260503174547 74 69 0.0 1.7 0.00 0.00 0.00 52 1012.0
20260503173109 72 178 0.0 2.6 0.00 0.00 0.00 52 1012.0
20260503171552 72 0 0.0 3.5 0.00 0.00 0.00 54 1012.1
20260503081544 52 0 0.0 1.7 0.00 0.00 0.00 77 1012.5
20260503080127 53 0 0.0 0.0 0.00 0.00 0.00 76 1012.5
20260503071603 53 0 0.0 0.0 0.00 0.00 0.00 78 1012.5
20260503060103 56 0 0.0 0.0 0.00 0.00 0.00 69 1012.4
20260503054556 57 0 0.0 0.0 0.00 0.00 0.00 67 1012.5
20260503053043 57 0 0.0 0.0 0.00 0.00 0.00 70 1012.4
20260503051547 58 0 0.0 0.0 0.00 0.00 0.00 71 1012.5
20260503050051 58 0 0.0 0.0 0.00 0.00 0.00 71 1012.4
20260503044546 59 0 0.0 0.9 0.00 0.00 0.00 70 1012.4
20260503043045 59 0 0.0 0.0 0.00 0.00 0.00 69 1012.3
20260503041545 61 0 0.0 0.9 0.00 0.00 0.00 67 1012.1
20260503040100 63 0 0.0 0.0 0.00 0.00 0.00 66 1012.1
20260503034546 65 0 0.0 0.0 0.00 0.00 0.00 59 1012.0
20260503033045 68 0 0.0 0.0 0.00 0.00 0.00 55 1011.8
20260503031600 70 0 0.0 0.0 0.00 0.00 0.00 54 1011.6
20260503030049 72 0 0.0 0.0 0.00 0.00 0.00 49 1011.4
20260503024550 74 0 0.0 0.0 0.00 0.00 0.00 45 1011.3
20260503023050 75 0 0.0 0.0 0.00 0.00 0.00 42 1011.3
20260503021548 76 0 0.0 0.0 0.00 0.00 0.00 42 1011.2
20260503020051 77 0 0.0 0.0 0.00 0.00 0.00 41 1011.3
20260503014607 79 0 0.0 0.0 0.00 0.00 0.00 40 1011.3
20260503013048 80 0 0.0 0.0 0.00 0.00 0.00 39 1011.4
20260503011550 82 0 0.0 1.7 0.00 0.00 0.00 39 1011.3
20260503010048 84 0 0.0 1.7 0.00 0.00 0.00 37 1011.3
20260503004542 84 0 0.0 1.7 0.00 0.00 0.00 37 1011.5
20260503003050 85 0 0.0 0.9 0.00 0.00 0.00 36 1011.7
20260503001555 84 0 0.0 2.6 0.00 0.00 0.00 36 1011.9
20260503000048 83 0 0.0 2.6 0.00 0.00 0.00 37 1012.0
20260502234553 84 195 0.0 3.5 0.00 0.00 0.00 38 1012.1
20260502233054 83 0 0.0 2.6 0.00 0.00 0.00 38 1012.3
20260502231547 84 127 0.0 1.7 0.00 0.00 0.00 39 1012.5
20260502230053 84 183 0.0 2.6 0.00 0.00 0.00 37 1012.6
20260502224547 84 0 0.0 3.5 0.00 0.00 0.00 39 1012.9
20260502223050 83 0 0.0 2.6 0.00 0.00 0.00 40 1013.0
20260502221548 83 171 0.0 3.5 0.00 0.00 0.00 42 1013.2
20260502220048 82 0 0.0 2.6 0.00 0.00 0.00 44 1013.3
20260502214551 82 0 0.0 1.7 0.00 0.00 0.00 43 1013.3